Time,TemperatureF,DewpointF,PressureIn,WindDirection,WindDirectionDegrees,WindSpeedMPH,WindSpeedGustMPH,Humidity,HourlyPrecipIn,Conditions,Clouds,dailyrainin,SolarRadiationWatts/m^2,SoftwareType,DateUTC
2013-04-05 00:12:00,52.0,51.0,-100.00,WNW,303,1.0,5.0,96,0.00,,,0.00,1.000000,,2013-04-05 07:12:00,
2013-04-05 00:22:00,52.0,51.0,-100.00,WNW,303,1.0,5.0,96,0.00,,,0.00,1.000000,,2013-04-05 07:22:00,
2013-04-05 00:32:00,52.0,51.0,-100.00,WNW,303,1.0,5.0,96,0.00,,,0.00,1.000000,,2013-04-05 07:32:00,
2013-04-05 00:42:00,52.0,51.0,-100.00,WNW,303,1.0,5.0,96,0.00,,,0.00,1.000000,,2013-04-05 07:42:00,
2013-04-05 01:12:00,51.0,50.0,-100.00,East,87,7.0,8.0,96,0.00,,,0.00,0.000000,,2013-04-05 08:12:00,
2013-04-05 01:22:00,51.0,50.0,-100.00,East,87,7.0,8.0,96,0.00,,,0.00,0.000000,,2013-04-05 08:22:00,
2013-04-05 01:32:00,51.0,50.0,-100.00,East,87,7.0,8.0,96,0.00,,,0.00,0.000000,,2013-04-05 08:32:00,
2013-04-05 01:42:00,51.0,50.0,-100.00,East,87,7.0,8.0,96,0.00,,,0.00,0.000000,,2013-04-05 08:42:00,
2013-04-05 02:12:00,51.0,50.0,-100.00,East,96,12.0,14.0,96,0.00,,,0.00,0.000000,,2013-04-05 09:12:00,
2013-04-05 02:22:00,51.0,50.0,-100.00,East,96,12.0,14.0,96,0.00,,,0.00,0.000000,,2013-04-05 09:22:00,
2013-04-05 02:32:00,51.0,50.0,-100.00,East,96,12.0,14.0,96,0.00,,,0.00,0.000000,,2013-04-05 09:32:00,
2013-04-05 02:42:00,51.0,50.0,-100.00,East,96,12.0,14.0,96,0.00,,,0.00,0.000000,,2013-04-05 09:42:00,
2013-04-05 03:12:00,52.0,51.0,-100.00,East,97,12.0,16.0,96,0.00,,,0.00,0.000000,,2013-04-05 10:12:00,
2013-04-05 03:23:00,52.0,51.0,-100.00,East,97,12.0,16.0,96,0.00,,,0.00,0.000000,,2013-04-05 10:23:00,
2013-04-05 03:32:00,52.0,51.0,-100.00,East,97,12.0,16.0,96,0.00,,,0.00,0.000000,,2013-04-05 10:32:00,
2013-04-05 03:42:00,52.0,51.0,-100.00,East,97,12.0,16.0,96,0.00,,,0.00,0.000000,,2013-04-05 10:42:00,
2013-04-05 04:12:00,53.0,52.0,-100.00,ESE,103,11.0,17.0,95,0.00,,,0.00,0.000000,,2013-04-05 11:12:00,
2013-04-05 04:22:00,53.0,52.0,-100.00,ESE,103,11.0,17.0,95,0.00,,,0.00,0.000000,,2013-04-05 11:22:00,
2013-04-05 04:32:00,53.0,52.0,-100.00,ESE,103,11.0,17.0,95,0.00,,,0.00,0.000000,,2013-04-05 11:32:00,
2013-04-05 04:42:00,53.0,52.0,-100.00,ESE,103,11.0,17.0,95,0.00,,,0.00,0.000000,,2013-04-05 11:42:00,
2013-04-05 05:12:00,50.0,49.0,-100.00,East,80,2.0,13.0,95,0.00,,,0.00,0.000000,,2013-04-05 12:12:00,
2013-04-05 05:22:00,50.0,49.0,-100.00,East,80,2.0,13.0,95,0.00,,,0.00,0.000000,,2013-04-05 12:22:00,
2013-04-05 05:32:00,50.0,49.0,-100.00,East,80,2.0,13.0,95,0.00,,,0.00,0.000000,,2013-04-05 12:32:00,
2013-04-05 05:42:00,50.0,49.0,-100.00,East,80,2.0,13.0,95,0.00,,,0.00,0.000000,,2013-04-05 12:42:00,
2013-04-05 06:12:00,49.0,48.0,-100.00,ESE,118,2.0,5.0,96,0.00,,,0.00,0.000000,,2013-04-05 13:12:00,
2013-04-05 06:22:00,49.0,48.0,-100.00,ESE,118,2.0,5.0,96,0.00,,,0.00,0.000000,,2013-04-05 13:22:00,
2013-04-05 06:32:00,49.0,48.0,-100.00,ESE,118,2.0,5.0,96,0.00,,,0.00,0.000000,,2013-04-05 13:32:00,
2013-04-05 06:42:00,49.0,48.0,-100.00,ESE,118,2.0,5.0,96,0.00,,,0.00,0.000000,,2013-04-05 13:42:00,
2013-04-05 07:12:00,49.0,48.0,-100.00,SE,131,0.0,5.0,96,0.00,,,0.00,2.000000,,2013-04-05 14:12:00,
2013-04-05 07:22:00,49.0,48.0,-100.00,SE,131,0.0,5.0,96,0.00,,,0.00,2.000000,,2013-04-05 14:22:00,
2013-04-05 07:36:00,49.0,48.0,-100.00,SE,131,0.0,5.0,96,0.00,,,0.00,2.000000,,2013-04-05 14:36:00,
2013-04-05 07:42:00,49.0,48.0,-100.00,SE,131,0.0,5.0,96,0.00,,,0.00,2.000000,,2013-04-05 14:42:00,
2013-04-05 08:12:00,49.0,48.0,-100.00,WSW,255,3.0,5.0,96,0.00,,,0.00,46.000000,,2013-04-05 15:12:00,
2013-04-05 08:23:00,49.0,48.0,-100.00,WSW,255,3.0,5.0,96,0.00,,,0.00,46.000000,,2013-04-05 15:23:00,
2013-04-05 08:42:00,49.0,48.0,-100.00,WSW,255,3.0,5.0,96,0.00,,,0.00,46.000000,,2013-04-05 15:42:00,
2013-04-05 09:13:00,50.0,49.0,-100.00,West,259,6.0,8.0,96,0.00,,,0.00,168.000000,,2013-04-05 16:13:00,
2013-04-05 09:23:00,50.0,49.0,-100.00,West,259,6.0,8.0,96,0.00,,,0.00,168.000000,,2013-04-05 16:23:00,
2013-04-05 09:32:00,50.0,49.0,-100.00,West,259,6.0,8.0,96,0.00,,,0.00,168.000000,,2013-04-05 16:32:00,
2013-04-05 09:42:00,50.0,49.0,-100.00,West,259,6.0,8.0,96,0.00,,,0.00,168.000000,,2013-04-05 16:42:00,
2013-04-05 10:12:00,52.0,51.0,-100.00,West,272,9.0,12.0,96,0.00,,,0.00,287.000000,,2013-04-05 17:12:00,
2013-04-05 10:23:00,52.0,51.0,-100.00,West,272,9.0,12.0,96,0.00,,,0.00,287.000000,,2013-04-05 17:23:00,
2013-04-05 10:32:00,52.0,51.0,-100.00,West,272,9.0,12.0,96,0.00,,,0.00,287.000000,,2013-04-05 17:32:00,
2013-04-05 10:44:00,52.0,51.0,-100.00,West,272,9.0,12.0,96,0.00,,,0.00,287.000000,,2013-04-05 17:44:00,
2013-04-05 11:12:00,53.0,52.0,-100.00,West,271,13.0,16.0,96,0.00,,,0.00,387.000000,,2013-04-05 18:12:00,
2013-04-05 11:22:00,53.0,52.0,-100.00,West,271,13.0,16.0,96,0.00,,,0.00,387.000000,,2013-04-05 18:22:00,
2013-04-05 11:32:00,53.0,52.0,-100.00,West,271,13.0,16.0,96,0.00,,,0.00,387.000000,,2013-04-05 18:32:00,
2013-04-05 11:42:00,53.0,52.0,-100.00,West,271,13.0,16.0,96,0.00,,,0.00,387.000000,,2013-04-05 18:42:00,
2013-04-05 12:13:00,55.0,54.0,-100.00,West,277,9.0,15.0,95,-99.99,,,0.00,330.000000,,2013-04-05 19:13:00,
2013-04-05 12:22:00,55.0,54.0,-100.00,West,277,9.0,15.0,95,-99.99,,,0.00,330.000000,,2013-04-05 19:22:00,
2013-04-05 12:32:00,55.0,54.0,-100.00,West,277,9.0,15.0,95,-99.99,,,0.00,330.000000,,2013-04-05 19:32:00,
2013-04-05 12:42:00,55.0,54.0,-100.00,West,277,9.0,15.0,95,-99.99,,,0.00,330.000000,,2013-04-05 19:42:00,
2013-04-05 13:11:00,60.0,55.0,-100.00,WNW,287,8.0,17.0,84,-99.99,,,0.00,821.000000,,2013-04-05 20:11:00,
2013-04-05 13:22:00,60.0,55.0,-100.00,WNW,287,8.0,17.0,84,-99.99,,,0.00,821.000000,,2013-04-05 20:22:00,
2013-04-05 13:31:00,60.0,55.0,-100.00,WNW,287,8.0,17.0,84,-99.99,,,0.00,821.000000,,2013-04-05 20:31:00,
2013-04-05 13:42:00,60.0,55.0,-100.00,WNW,287,8.0,17.0,84,-99.99,,,0.00,821.000000,,2013-04-05 20:42:00,
2013-04-05 14:12:00,64.0,51.0,-100.00,WNW,282,6.0,15.0,63,0.00,,,0.00,834.000000,,2013-04-05 21:12:00,
2013-04-05 14:23:00,64.0,51.0,-100.00,WNW,282,6.0,15.0,63,0.00,,,0.00,834.000000,,2013-04-05 21:23:00,
2013-04-05 14:33:00,64.0,51.0,-100.00,WNW,282,6.0,15.0,63,0.00,,,0.00,834.000000,,2013-04-05 21:33:00,
2013-04-05 14:42:00,64.0,51.0,-100.00,WNW,282,6.0,15.0,63,0.00,,,0.00,834.000000,,2013-04-05 21:42:00,
2013-04-05 15:13:00,65.0,49.0,-100.00,WSW,252,16.0,22.0,57,0.00,,,-99.99,846.000000,,2013-04-05 22:13:00,
2013-04-05 15:22:00,65.0,49.0,-100.00,WSW,252,16.0,22.0,57,0.00,,,-99.99,846.000000,,2013-04-05 22:22:00,
2013-04-05 15:32:00,65.0,49.0,-100.00,WSW,252,16.0,22.0,57,0.00,,,-99.99,846.000000,,2013-04-05 22:32:00,
2013-04-05 15:42:00,65.0,49.0,-100.00,WSW,252,16.0,22.0,57,0.00,,,-99.99,846.000000,,2013-04-05 22:42:00,
2013-04-05 16:12:00,62.0,51.0,-100.00,WSW,247,14.0,26.0,66,0.00,,,0.00,709.000000,,2013-04-05 23:12:00,
2013-04-05 16:22:00,62.0,51.0,-100.00,WSW,247,14.0,26.0,66,0.00,,,0.00,709.000000,,2013-04-05 23:22:00,
2013-04-05 16:32:00,62.0,51.0,-100.00,WSW,247,14.0,26.0,66,0.00,,,0.00,709.000000,,2013-04-05 23:32:00,
2013-04-05 16:42:00,62.0,51.0,-100.00,WSW,247,14.0,26.0,66,0.00,,,0.00,709.000000,,2013-04-05 23:42:00,
2013-04-05 17:12:00,66.0,53.0,-100.00,West,276,5.0,17.0,62,0.00,,,0.00,414.000000,,2013-04-06 00:12:00,
2013-04-05 17:22:00,66.0,53.0,-100.00,West,276,5.0,17.0,62,0.00,,,0.00,414.000000,,2013-04-06 00:22:00,
2013-04-05 17:32:00,66.0,53.0,-100.00,West,276,5.0,17.0,62,0.00,,,0.00,414.000000,,2013-04-06 00:32:00,
2013-04-05 17:42:00,66.0,53.0,-100.00,West,276,5.0,17.0,62,0.00,,,0.00,414.000000,,2013-04-06 00:42:00,
2013-04-05 18:12:00,63.0,51.0,-100.00,SW,233,6.0,15.0,64,0.00,,,-99.99,299.000000,,2013-04-06 01:12:00,
2013-04-05 18:22:00,63.0,51.0,-100.00,SW,233,6.0,15.0,64,0.00,,,-99.99,299.000000,,2013-04-06 01:22:00,
2013-04-05 18:32:00,63.0,51.0,-100.00,SW,233,6.0,15.0,64,0.00,,,-99.99,299.000000,,2013-04-06 01:32:00,
2013-04-05 18:42:00,63.0,51.0,-100.00,SW,233,6.0,15.0,64,0.00,,,-99.99,299.000000,,2013-04-06 01:42:00,
2013-04-05 19:12:00,60.0,51.0,-100.00,SW,231,8.0,15.0,72,0.00,,,0.00,143.000000,,2013-04-06 02:12:00,
2013-04-05 19:22:00,60.0,51.0,-100.00,SW,231,8.0,15.0,72,0.00,,,0.00,143.000000,,2013-04-06 02:22:00,
2013-04-05 19:32:00,60.0,51.0,-100.00,SW,231,8.0,15.0,72,0.00,,,0.00,143.000000,,2013-04-06 02:32:00,
2013-04-05 19:42:00,60.0,51.0,-100.00,SW,231,8.0,15.0,72,0.00,,,0.00,143.000000,,2013-04-06 02:42:00,
2013-04-05 20:12:00,58.0,51.0,-100.00,WSW,248,7.0,8.0,77,0.00,,,0.00,18.000000,,2013-04-06 03:12:00,
2013-04-05 20:22:00,58.0,51.0,-100.00,WSW,248,7.0,8.0,77,0.00,,,0.00,18.000000,,2013-04-06 03:22:00,
2013-04-05 20:33:00,58.0,51.0,-100.00,WSW,248,7.0,8.0,77,0.00,,,0.00,18.000000,,2013-04-06 03:33:00,
2013-04-05 20:42:00,58.0,51.0,-100.00,WSW,248,7.0,8.0,77,0.00,,,0.00,18.000000,,2013-04-06 03:42:00,
2013-04-05 21:13:00,56.0,51.0,-100.00,WSW,244,8.0,12.0,83,0.00,,,0.00,0.000000,,2013-04-06 04:13:00,
2013-04-05 21:23:00,56.0,51.0,-100.00,WSW,244,8.0,12.0,83,0.00,,,0.00,0.000000,,2013-04-06 04:23:00,
2013-04-05 21:32:00,56.0,51.0,-100.00,WSW,244,8.0,12.0,83,0.00,,,0.00,0.000000,,2013-04-06 04:32:00,
2013-04-05 21:42:00,56.0,51.0,-100.00,WSW,244,8.0,12.0,83,0.00,,,0.00,0.000000,,2013-04-06 04:42:00,
2013-04-05 22:12:00,58.0,50.0,-100.00,WSW,254,4.0,10.0,75,0.00,,,0.00,0.000000,,2013-04-06 05:12:00,
2013-04-05 22:22:00,58.0,50.0,-100.00,WSW,254,4.0,10.0,75,0.00,,,0.00,0.000000,,2013-04-06 05:22:00,
2013-04-05 22:32:00,58.0,50.0,-100.00,WSW,254,4.0,10.0,75,0.00,,,0.00,0.000000,,2013-04-06 05:32:00,
2013-04-05 22:42:00,58.0,50.0,-100.00,WSW,254,4.0,10.0,75,0.00,,,0.00,0.000000,,2013-04-06 05:42:00,
2013-04-05 23:12:00,55.0,50.0,-100.00,SSE,152,3.0,8.0,83,0.00,,,0.00,1.000000,,2013-04-06 06:12:00,
2013-04-05 23:22:00,55.0,50.0,-100.00,SSE,152,3.0,8.0,83,0.00,,,0.00,1.000000,,2013-04-06 06:22:00,
2013-04-05 23:32:00,55.0,50.0,-100.00,SSE,152,3.0,8.0,83,0.00,,,0.00,1.000000,,2013-04-06 06:32:00,
2013-04-05 23:42:00,55.0,50.0,-100.00,SSE,152,3.0,8.0,83,0.00,,,0.00,1.000000,,2013-04-06 06:42:00,